小惑星センターは、6月22.6日UT、ハワイのHaleakalaにある小惑星地球衝突最終警報システム
Asteroid Terrestrial-impact Last Alert System (ATLAS)調査プログラムのコースに0.5-m f/2
Schmidt反射望遠鏡で得たCCD画像から発見された際、一見小惑星状天体として報告されていた
P/2021 N1 (CBET 4999参照)の、偶然の検出観測を同定した。
ATLASによる観測は、当初、MPCのNEOCP webpageに新発見として掲載されていた。
中央局は、佐藤英貴氏(東京都文京区)から、6月23.3日UT、チリ Rio Hurtadoの0.25-m f/3.8
アストログラフの遠隔操作で得たCMOSフォローアップ観測画像では、強く集光した15" のコマが
見え、p.a. 250°に50"の尾があると報告を受けた。8".7の円形範囲で測定した光度はは16.1等で
あった。
M. Mattiazzo (Swan Hill, ビクトリア州, オーストラリア)によると、6月23.74日、ニューサウス
ウェールズ州 Siding Springにある0.43-m f/6.8 反射望遠鏡で得た、11枚をスタックした30-秒
露出のCMOS画像では、中程度のコンパクトな0'.23のコマが見え、p.a. 250°に2'-の尾があり、
全光度は16.2等とのこと。
M. Masek (チェコ科学アカデミー物理学研究所)によると、6月24.19日、カナリア諸島 La Palma
にある将来建設予定のCherenkov望遠鏡アレイ (CTA)の設置予定地に設置した、25-cm Schmidt-
Cassegrain 反射望遠鏡によるP/2021 N1のフィルターなしCCDフォローアップを行った。0'.4の
集光したコマ (全光度15.6等)と、p.a. 251°に1'.1の尾があるとのこと。
ICQ's 2026 Comet Handbookの中野主一氏の予報に対し、Delta(T)は、+2.1 daysであった。
MPEC 2021-O56のM. Rudenkoの予報に対する修正値は、Delta(T) = +6.1 daysであった。
MPC 194175のR. Pikeの予報に対する修正値は、Delta(T) = +0.66 dayであった。
彗星機能の報告は次のとおり、
OC Date Reporter Coma Tail PA Comet Date
(T/P) Reported
950 2026-06-24 M. Masek 24" 66" 251 T 2026-06-24.97
検出位置は次のとおり、(NEOCP A11DV3H)
2026 UT R.A. (2000) Decl. Mag.
June 22.56465 23 25 50.69 -35 05 34.3 16.6
22.57060 23 25 54.21 -35 04 51.0 16.8
22.58202 23 26 00.96 -35 03 27.8 16.5
22.58613 23 26 03.41 -35 02 57.5 16.5
MPCの連結軌道要素と位置推算表は次のとおり、
Orbital elements:
P/2021 N1 (ZTF)
Epoch 2026 July 19.0 TT = JDT 2461240.5
T 2026 July 28.48704 TT Rudenko
q 0.9663190 (2000.0) P Q
n 0.19151451 Peri. 21.21919 +0.78537596 +0.59508262
a 2.9808143 Node 301.11431 -0.59274395 +0.64357590
e 0.6758205 Incl. 11.48547 -0.17843547 +0.48133848
P 5.15
From 133 observations 2021 June 17-2026 June 29, mean residual 0".6.
P/2021 N1 (ZTF)
Epoch 2021 May 26.0 TT = JDT 2459360.5
T 2021 June 6.55754 TT Rudenko
q 0.9619986 (2000.0) P Q
n 0.19181710 Peri. 21.19037 +0.78538274 +0.59500899
a 2.9776787 Node 301.14477 -0.59274325 +0.64341694
e 0.6769300 Incl. 11.50462 -0.17840793 +0.48164193
P 5.14
From 133 observations 2021 June 17-2026 June 29, mean residual 0".6.
Ephemeris:
Date TT R. A. (2000) Decl. Delta r Elong. Phase m1
2026 05 30 19 46 05.8 -52 31 42 0.3470 1.2686 131.0 37.1 17.7
...
2026 06 14 21 55 24.9 -47 37 33 0.2235 1.1507 122.3 48.2 16.4
...
2026 06 22 23 20 00.6 -36 13 11 0.1807 1.0955 111.5 59.6 15.7
...
2026 06 28 00 18 01.0 -22 17 16 0.1661 1.0590 100.4 70.8 15.4
2026 06 29 00 26 47.8 -19 40 20 0.1655 1.0534 98.4 72.7 15.3
2026 06 30 00 35 17.9 -17 01 18 0.1653 1.0480 96.4 74.6 15.3
...
2026 07 06 01 20 32.3 -01 28 11 0.1749 1.0184 85.6 84.5 15.3
...
2026 07 14 02 07 37.3 +14 56 10 0.2097 0.9884 76.4 91.7 15.6
...
2026 07 29 03 10 40.6 +31 49 33 0.3066 0.9663 72.1 90.3 16.3
中野主一氏(中央局)の軌道要素は次のとおり、
from 117 observations spanning 2021 June 17-2026 June 26 (mean residual 0".5).
この彗星は2003年4月6日に木星から0.52 AUの距離を通過し、2026年6月29日には地球から0.17 AU
の距離を通過する予定である。また、2038年9月7日(UT)には、木星から0.82 AUの距離を通過する
予定である。
Epoch = 2000 Sept.13.0 TT
T = 2000 Sept. 6.30121 TT Peri. = 15.69423
e = 0.6504598 Node = 306.22774 2000.0
q = 1.0592929 AU Incl. = 13.84953
a = 3.0305325 AU n = 0.18682098 P = 5.28 years
Epoch = 2005 Dec. 16.0 TT
T = 2005 Dec. 20.38486 TT Peri. = 21.07648
e = 0.6735578 Node = 301.22597 2000.0
q = 0.9758312 AU Incl. = 11.48760
a = 2.9892923 AU n = 0.19070036 P = 5.17 years
Epoch = 2011 Feb. 8.0 TT
T = 2011 Feb. 20.83540 TT Peri. = 21.18836
e = 0.6740479 Node = 301.17264 2000.0
q = 0.9735341 AU Incl. = 11.48442
a = 2.9867400 AU n = 0.19094485 P = 5.16 years
Epoch = 2016 Apr. 2.0 TT
T = 2016 Apr. 15.86555 TT Peri. = 21.21545
e = 0.6758780 Node = 301.12766 2000.0
q = 0.9661081 AU Incl. = 11.48984
a = 2.9806927 AU n = 0.19152623 P = 5.15 years
Epoch = 2021 May 26.0 TT
T = 2021 June 6.55768 TT Peri. = 21.19089
e = 0.6769307 Node = 301.14414 2000.0
q = 0.9619964 AU Incl. = 11.50455
a = 2.9776785 AU n = 0.19181712 P = 5.14 years
Epoch = 2026 July 19.0 TT
T = 2026 July 28.48699 TT Peri. = 21.21972
e = 0.6758212 Node = 301.11368 2000.0
q = 0.9663168 AU Incl. = 11.48539
a = 2.9808141 AU n = 0.19151453 P = 5.15 years
Epoch = 2031 Sept.11.0 TT
T = 2031 Sept.18.85805 TT Peri. = 21.18619
e = 0.6749825 Node = 301.09418 2000.0
q = 0.9694766 AU Incl. = 11.47071
a = 2.9828445 AU n = 0.19131902 P = 5.15 years
Epoch = 2036 Nov. 3.0 TT
T = 2036 Nov. 15.23221 TT Peri. = 21.28797
e = 0.6745334 Node = 301.03065 2000.0
q = 0.9715950 AU Incl. = 11.45541
a = 2.9852376 AU n = 0.19108902 P = 5.16 years
Epoch = 2042 Mar. 17.0 TT
T = 2042 Mar. 2.62751 TT Peri. = 23.76000
e = 0.6590767 Node = 299.48298 2000.0
q = 1.0378872 AU Incl. = 10.66239
a = 3.0443425 AU n = 0.18555121 P = 5.31 years
上記の軌道要素に基づき、Daniel W. E. Greenが位置推算表を計算した。
光度算出に測光のべき乗則パラメータ H = 18.0 および 2.5n = 10 を使用している
(これは、2021年の再接近時に使用されたパラメータよりも1等級暗い値である)。
Date TT R. A. (2000) Decl. Delta r Elong. Phase Mag.
2026 06 09 21 05.61 -50 55.7 0.260 1.188 126.5 43.3 15.8
2026 06 19 22 48.51 -41 30.8 0.194 1.115 116.2 54.8 14.9
2026 06 29 00 26.80 -19 40.3 0.165 1.053 98.4 72.7 14.3
2026 07 09 01 39.75 +05 24.5 0.186 1.006 81.4 88.1 14.4
2026 07 19 02 31.39 +22 11.7 0.239 0.976 73.6 92.8 14.8
2026 07 29 03 10.68 +31 49.6 0.307 0.966 72.1 90.3 15.3
2026 08 08 03 43.07 +37 34.2 0.376 0.978 73.8 84.6 15.8
2026 08 18 04 10.56 +41 13.5 0.441 1.010 77.1 77.7 16.3
2026 08 28 04 33.37 +43 41.1 0.497 1.059 81.7 70.7 16.7
2026 09 07 04 50.97 +45 26.2 0.543 1.122 87.3 63.8 17.2
2026 09 17 05 02.29 +46 44.5 0.580 1.196 94.1 57.0 17.6
2026 09 27 05 06.31 +47 42.7 0.607 1.277 102.2 50.1 18.0
2026 10 07 05 02.27 +48 19.5 0.630 1.363 111.5 43.0 18.3
2026 10 17 04 50.02 +48 25.3 0.652 1.452 122.0 35.6 18.7
2026 10 27 04 31.11 +47 45.8 0.680 1.543 133.4 27.9 19.0
2026 11 06 04 08.86 +46 11.6 0.721 1.634 144.7 20.5 19.4
2026 11 16 03 47.41 +43 47.6 0.780 1.725 154.3 14.4 19.8
2026 11 26 03 30.16 +40 54.6 0.861 1.816 158.6 11.5 20.3
2026 12 06 03 18.49 +37 58.5 0.965 1.905 155.2 12.5 20.7
2026 12 16 03 12.35 +35 18.8 1.093 1.994 147.4 15.4 21.2
2026 12 26 03 10.99 +33 06.0 1.241 2.081 138.3 18.3 21.7
(MPEC 2026-M132、CBET 5707、oaa-comet 9284)